OBJECT N, 57178

Orbit data source: Space-Track

You're viewing an Uncataloged Satellite

Recently launched and/or uncataloged satellites may have evolving metadata. Metadata may include but not limited to: Owner, Maufacturer, Bus, Motor, and Mission.

OBJECT N, 57178 is a satellite in SSO that was launched on Tue, 27 Jun 2023 UTC via a SOYUZ-2-1B launch vehicle from the Vostochny Cosmodrome (VOSTO). Unknown objects in Earth's orbit typically refer to objects detected orbiting the Earth but have not yet been identified or cataloged. These objects could be anything from previously untracked satellites, spent rocket stages, debris from satellite collisions, or even natural meteoroids temporarily captured by Earth's gravity.

Loading next visibility...
Identifier
57178, 2023-091N
Orbit
SSO
Country
Flag of TBDTBD
Related business
Flag of RUNational Research University Higher School of Economics (RU)
Manufacturer
Sputniks
Mission
Operational Amateur Imaging/Com
Bus & Motor
CUBESAT 3U, Unknown motor
Mass
3.39 kg wet, 3.39 kg dry
Launch date (UTC)
2023-06-27 (3 years ago)
Launch vehicle
SOYUZ-2-1B
Launch site
Vostochny Cosmodrome (VOSTO)
Object type
Unknown
Shape & HBR
Box, 0.1 m
Radar Cross Section
0.035 m², Medium (>0.1 m² and < 1m²)

Expand to show TLE details & history
Last TLE update: 19 hours ago

TLE from 19 hours ago
0 OBJECT N
1 57178U 23091N   26149.54617415  .00017010  00000-0  57443-3 0  9993
2 57178  97.5106 214.9041 0011803 152.5486 207.6381 15.30677592161575
Epoch: 2026-05-29T13:06Z
TLE epoch observation values (Epoch: 2026-05-29T13:06:29.446Z)
Latitude
0.00002°
Longitude
131.2064°
Altitude
484.059 km
Speed
7.619 km/s
True Right ascension
14h 19m 36s
True Declination
0° 00' 00"
Sunlit
Object was in full shadow at epoch
Visualization orbit readout
Latitude
Unknown
Longitude
Unknown
Altitude
Unknown
Speed
Unknown
Apparent Right ascension
Unknown
Apparent Declination
Unknown
Sunlit
N/A
Visualization observer readout
Local Sidereal Time
18:03:14
Azimuth
Unknown
Elevation
Unknown
Doppler factor
Unknown
Orbital elements
Apogee altitude
478.829 km
Perigee altitude
462.662 km
Semi-major axis
6,848.883 km
Eccentricity
0.00118
Inclination
97.5106°
RAAN
214.9041°
Arg. of periapsis
152.5486°
True anomaly
207.57544°
Mean anomaly
207.6381°
Eccentric anomaly
207.60676°
Mean motion
3.82925 °/min
Orbital period
94.01 mins
BSTAR
0.00057443
Loading maneuver chart data...
Computing Atmospheric mass density...
Loading historical data...
Loading historical data...
Loading historical data...
Loading historical data...
Loading historical data...
Loading historical data...
Loading historical data...

Documentation

Showing up to 5 results
|